Regional Weather Roundup
Issued by NWS Wakefield, VA

Home | Current Version | Previous Version | Graphics & Text | Print | Product List | Glossary On
Versions: 1 2 3 4 5 6 7 8 9 10 11 12 13 14 15 16 17 18 19 20 21 22 23 24 25 26 27
000
ASUS41 KAKQ 240715
RWRAKQ

REGIONAL WEATHER ROUNDUP
NATIONAL WEATHER SERVICE WAKEFIELD VA
200 AM EST SAT FEB 24 2018

Note: "fair" indicates few or no clouds below 12,000 feet with no
significant weather and/or obstructions to visibility. * = Denotes
station may not report precipitation (e.g., rain,snow,etc.),
thunder or fog.

VAZ042-051-052>054-056-240800-
NORTHERN VIRGINIA

CITY           SKY/WX    TMP DP  RH WIND       PRES   REMARKS
WASH NATIONAL  FOG       49  48  97 CALM      30.23F VSB 1/4
DULLES         FOG       47  47 100 CALM      30.22S VSB 1/2
FORT BELVOIR   CLOUDY    48  46  93 CALM      30.22S FOG
QUANTICO       CLOUDY    50  50 100 CALM      30.22F FOG
FREDERICKSBRG* CLOUDY    51  51 100 S5        30.21F
STAFFORD*      MOCLDY    49  49 100 SE3       30.24F FOG
WARRENTON      CLOUDY    51  47  87 CALM      30.21R
CULPEPER*      CLOUDY    49  48  93 CALM      30.21F
MANASSAS*      CLOUDY    49  48  97 N3        30.22S
LEESBURG*      FOG       43  43 100 CALM      30.22F VSB 3/4
WINCHESTER     FOG       39  39 100 CALM      30.20F VSB 1/4
FRONT ROYAL*   CLOUDY    39  39 100 CALM      30.18F
LURAY*         FAIR      45  45 100 CALM      30.18F
$$

VAZ048-049-060>072-079>083-240800-
CENTRAL AND SOUTH CENTRAL VIRGINIA

CITY           SKY/WX    TMP DP  RH WIND       PRES   REMARKS
RICHMOND       CLOUDY    48  48 100 S7        30.23F
CHESTERFIELD*  CLOUDY    46  46 100 CALM      30.24F
PETERSBURG*    CLOUDY    46  44  95 CALM      30.24F FOG
HANOVER        FAIR      48  47  96 SW5       30.24F
TAPPAHANNOCK*  CLOUDY    50  50 100 S9        30.23F FOG
QUINTON*       CLOUDY    49  49 100 SE3       30.23F FOG
CHARLOTTSVILLE FAIR      50  48  93 S8        30.19F
GORDONSVILLE*  CLOUDY    49  49 100 SW7       30.19F FOG
ORANGE*        CLOUDY    48  48 100 CALM      30.20F FOG
LOUISA*        MOCLDY    50  49  98 S6        30.25F FOG
BUMPASS*       CLOUDY    50  49  95 SW8       30.22F
FARMVILLE*     CLOUDY   N/A N/A N/A CALM      30.24S FOG
CREWE*         FAIR      44  44 100 CALM      30.24F
FORT PICKETT*  CLOUDY    47  47 100 CALM      30.24F
CHASE CITY*    PTSUNNY   45  45 100 CALM      30.25S
CLARKSVILLE*   CLOUDY    45  45 100 CALM      30.24F VSB<1/4
SOUTH HILL*    CLOUDY    46  46 100 CALM      30.30F
LAWRENCEVILLE* CLOUDY    46  46  97 CALM      30.24F
EMPORIA*       CLOUDY    46  46 100 CALM      30.27F FOG
$$

VAZ088>098-240800-
SOUTHEAST VIRGINIA

CITY           SKY/WX    TMP DP  RH WIND       PRES   REMARKS
NORFOLK        FOG       53  53 100 S5        30.24F VSB 1/4
VIRGINIA BEACH FOG       51  50  96 S3        30.24F VSB 1/8
NORFOLK NAVAL  FOG       54  52  93 SW3       30.26F VSB 1/4
WEST POINT*    CLOUDY    50  50  97 SE3       30.25F
SALUDA*        CLOUDY    50  50 100 CALM      30.24F
NEWPORT NEWS   FOG       50  49  96 CALM      30.25F VSB 1/4
LANGLEY AFB    FOG       50  50 100 CALM      30.25F VSB 1/8
FORT EUSTIS    FOG       50  50 100 CALM      30.23F VSB 5/8
WILLIAMSBURG*  CLOUDY    54  50  87 S3        30.25F VSB 1/4
HR EXEC AP*    FOG       52  52 100 CALM      30.26F VSB 1/4
FRANKLIN*      FOG       48  47  97 CALM      30.26F VSB 1/4
US460-WAKEFLD  FOG       50  50 100 CALM      30.25F VSB 1/2
$$

VAZ020-022-025-037-045-240800-
WEST CENTRAL AND SOUTHWEST VIRGINIA

CITY           SKY/WX    TMP DP  RH WIND       PRES   REMARKS
STAUNTON*      FAIR      46  46  97 CALM      30.22F
WAYNESBORO*    FAIR      46  46  99 CALM      30.20F
HOT SPRINGS VA FAIR      58  49  71 SW10      30.26F
LYNCHBURG      FOG       48  48 100 SW3       30.23F VSB 1/4
DANVILLE       FOG       48  48 100 SW3       30.25F VSB 1/4
SOUTH BOSTON*  CLOUDY    45  43  95 CALM      30.26S VSB 1/4
MARTINSVILLE   FAIR      41  41  98 CALM      30.27F FOG
ROANOKE        FAIR      46  45  96 CALM      30.25F
BLACKSBURG     MOCLDY    50  50  99 CALM      30.28F FOG
DUBLIN*        CLOUDY    54  54  99 CALM      30.26F FOG
MARION*        FAIR      55  52  90 CALM      30.28F
HILLSVILLE*    MOCLDY    56  55  94 S8        30.26F
RICHLANDS*     FAIR      62  51  66 SW3       30.25F
WISE*          FAIR      61  52  72 S5        30.25F
ABINGDON*      FAIR      59  55  84 CALM      30.24F
$$

MDZ021>025-VAZ099-100-240800-
SOUTHERN MARYLAND AND THE DELMARVA PENINSULA

CITY           SKY/WX    TMP DP  RH WIND       PRES   REMARKS
PATUXENT RIVER CLOUDY    50  50 100 SW3       30.23S FOG
BAY BRIDGE APT FOG       46  46 100 CALM      30.24R VSB 1/2
LEONARDTOWN    CLOUDY    50  48  93 SW5       30.25S
DOVER          CLOUDY    47  47  99 S8        30.21F FOG
GEORGETOWN     FOG       49  48  97 SW6       30.23F VSB 3/4
EASTON         FOG       48  47  95 SW5       30.26F VSB 3/4
CAMBRIDGE      FOG       48  48 100 S3        30.24F VSB 1/4
SALISBURY      CLOUDY    49  49 100 W7        30.24F FOG
OCEAN CITY     CLOUDY    48  48 100 SW6       30.24F FOG
WALLOPS ISLAND FOG       50  50 100 SW6       30.25F VSB 1/2
ACCOMACK*      FOG       50  50  99 CALM      30.25F VSB 1
$$

NCZ012>017-030>032-240800-
NORTH CENTRAL AND EASTERN NORTH CAROLINA

CITY           SKY/WX    TMP DP  RH WIND       PRES   REMARKS
ROANOKE RAPIDS FOG       55  55 100 CALM      30.26S VSB 1/2
RALEIGH        FAIR      58  57  97 S7        30.27S
ELIZABETH CITY FOG       58  58 100 S7        30.26F VSB 1/4
AHOSKIE*       CLOUDY    59  59 100 S6        30.26F FOG
EDENTON*       DRZL/FOG  62  62 100 S8        30.27F VSB 3/4
CURRITUCK*     FOG       53  52  98 SW5       30.26F VSB 1
KILL DEVIL HLS FOG      N/A N/A N/A CALM      30.26F VSB 1/2
MANTEO         CLOUDY    56  56 100 S8        30.28F FOG
CAPE HATTERAS  FAIR      56  55  97 CALM      30.28F FOG
TARBORO*       NOT AVBL
GOLDSBORO      FAIR      62  60  95 SW3       30.26F
WASHINGTON     CLOUDY    63  62  97 SW6       30.29S
GREENVILLE     FAIR      63  63 100 SW7       30.28F
NEW BERN       FAIR      58  58 100 S5        30.29F
WILMINGTON     MOCLDY    59  59 100 CALM      30.30S
$$

VAZ048-240800-
ELSEWHERE

CITY           SKY/WX    TMP DP  RH WIND       PRES   REMARKS
HARRISBURG PA  CLOUDY    44  42  93 CALM      30.19S FOG
BALTIMORE      DRZL/FOG  44  44 100 CALM      30.22F VSB 1/2
ANNAPOLIS      FOG       45  45 100 SE3       30.23S VSB 1/2
ANDREWS AFB    FOG       48  48 100 CALM      30.21S VSB 3/8
PHILADELPHIA   CLOUDY    44  43  96 W9        30.22F
HENDERSON NC   FOG       47  46  98 CALM      30.25F VSB 1/2
GREENSBORO     FAIR      49  49 100 CALM      30.24F FOG
ROCKY MOUNT    FAIR      59  59 100 S5        30.27S FOG
$$

VAZ100-240800-
MARINE

STATION/POSITION TIME  TEMP    WIND        PRES    WAVE   SWELL
                       AIR SEA DIR/SP/G            HT/PER HT/PER
                 (UTC) (F)     (DEG/KT/KT) (MB)    (FT/S) (FT/S)
BRANDYWINE LGT   0642          250/ 10/ 12 1024.2F
CAPE MAY NJ      0648      44  240/  6/  7 1023.5F
LEWES DE         0648      42  260/  8/ 12 1023.8F
15NM E FENWICK I 0650   44 43  220/  8/  8 1024.3F   4/ 7   3/ 7
OCEAN-CITY-INLET 0648      43  240/  6/  8 1024.2F
WACHAPREAGUE VA  0642      50  210/  6/ 10 1024.5F
THOMAS POINT MD  0700   44 42  190/  7/  8   N/A
GOOSES REEF MD   0700   44 42  200/  6/  8 1026.5    1/ 3
COVE POINT MD    0642          160/  5/  6 1024.5F
SOLOMONS ISLAND  0642      43  260/  1/  2 1023.5S
BISHOPS HEAD MD  0648      49  250/  2/  2 1024.6F
PINEY POINT MD   0642          280/  2/  2   N/A
POTOMAC MD       0700   47 44   90/  2/  4 1025.1    0
CAMBRIDGE MD     0642      47              1024.6F
LEWISETTA VA     0642      48  250/  2/  3 1023.5F
RAPPAHANNOCK LGT 0642          170/ 10/ 10 1024.9F
YORK RVR RNG VA  0642          140/  5/  5 1025.0F
YORKTOWN VA      0642      47   30/  1/  2 1024.2F
DOMINION TERM VA 0642          120/  3/  4 1024.6F
KIPTOPEKE VA     0642      45   90/  2/  3   N/A
CAPE HENRY VA    0642          130/  7/  7   N/A
WILLOUBY STN VA  0642           50/  1/  1 1024.4F
S CRANEY ISL VA  0642          200/  5/  7 1024.2F
CAPE HENRY BUOY  0700      44                N/A     4/10   2/11
CAPE CHARLES BUO 0651      44                N/A     3/ 9   2/11
64NM E OF VA BCH 0650   50 49  200/  4/  6 1025.5F   4/ 8   5/ 8
DUCK PIER NC     0642      46  180/ 10/ 12 1024.4F
44100 DUCK FRF   0645      46                N/A     4/ 8   2/11
44056 DUCK FRF   0700      46                N/A     4/ 8   2/11
OREGON INLET NC  0642      55  160/  3/  4 1025.5F
HATTERAS NC      0642      61  170/  3/  4 1025.7F
DIAMOND SHLS NC  0700   72     230/ 10/ 14 1025.9
CAPE LOOKOUT NC  0700          210/  5/  6 1026.1F
$$




USA.gov is the U.S. government's official web portal to all federal, state and local government web resources and services.